Flag for U.S.A. Weather past 2 weeks in Cumberland, Maryland, U.S.A.

Now
81 °F

Passing clouds.


Feels Like: 85 °F
Forecast: 70 / 89 °F
Wind: 5 mph from East

Location: Eastern West Virginia Regional Airport

Current Time: Jul 28, 2015 at 9:25:15 PM

Latest Report: Jul 28, 2015 at 8:53 PM


Visibility: 7 mi

Pressure: 29.97 "Hg

Humidity: 69%

Dew point: 70 °F

Location of CumberlandLocation

Historic Weather in Cumberland — Graph

°F

Cumberland temperature yesterday

Maximum temperature yesterday: 86 °F (at 2:53 PM)
Minimum temperature yesterday: 68 °F (at 6:00 AM)
Average temperature yesterday: 77 °F

Past Weeks' High & Low Weather Summary

 TemperatureHumidityPressure
High91 °F (Jul 19, 2:53 PM)100% (Jul 14, 3:03 AM)30.08 "Hg (Jul 14, 3:03 AM)
Low56 °F (Jul 24, 5:53 AM)38% (Jul 23, 5:53 PM)29.53 "Hg (Jul 14, 5:53 PM)
Average75 °F73%29.89 "Hg
* Reported Jul 13 7:53 PM — Jul 28 7:53 PM, Cumberland, Weather by CustomWeather, © 2015

Note: Actual official high and low records may vary slightly from our data, if they occured in-between our weather recording intervals... More about our weather records

Advertising

Cumberland weather history for previous 24 hours

 ConditionsComfort  
Time TempWeatherWind HumidityBarometerVisibility
7:53 PM
Tue, Jul 28
85 °FSunny.3 mph61%29.96 "Hg8 mi
6:53 PM87 °FSunny.3 mph55%29.94 "Hg10 mi
5:53 PM89 °FSunny.7 mph52%29.94 "Hg10 mi
4:53 PM89 °FPassing clouds.3 mph50%29.96 "Hg10 mi
3:53 PM89 °FSunny.8 mph50%29.97 "Hg10 mi
2:53 PM87 °FBroken clouds.3 mph53%29.97 "Hg10 mi
1:53 PM87 °FScattered clouds.6 mph55%29.98 "Hg9 mi
12:53 PM87 °FPartly sunny.5 mph57%30.00 "Hg8 mi
11:53 AM84 °FBroken clouds.3 mph63%30.02 "Hg7 mi
10:53 AM80 °FPartly sunny.3 mph74%30.03 "Hg5 mi
9:53 AM79 °FMostly cloudy.6 mph77%30.03 "Hg4 mi
8:53 AM76 °FPartly sunny.5 mph82%30.03 "Hg3 mi
7:53 AM73 °FFog.3 mph90%30.02 "Hg2 mi
6:53 AM70 °FFog.No wind93%30.02 "Hg1 mi
5:53 AM69 °FFog.No wind96%30.01 "Hg3 mi
4:57 AM69 °FFog.No wind96%30.02 "Hg3 mi
3:53 AM72 °FFog.No wind91%30.00 "Hg4 mi
2:53 AM69 °FFog.No wind96%30.00 "Hg3 mi
1:53 AM71 °FFog.No wind93%30.01 "Hg4 mi
12:53 AM71 °FFog.No wind96%30.01 "Hg5 mi
11:53 PM
Mon, Jul 27
74 °FFog.No wind91%30.01 "Hg6 mi
10:53 PM75 °FFog.No wind88%30.01 "Hg6 mi
9:53 PM77 °FPassing clouds.3 mph82%30.00 "Hg8 mi
Weather by CustomWeather, © 2015

See weather overviewHow to use our weather pages